Location: Unspecified
(42.9300°N, 71.1866°W)
Time: 08:25:31
(UTC-04:00)

Cosmos 2058 - Visible Passes

Search period start: 24 July 2014 00:00
Search period end: 03 August 2014 00:00
Orbit: 572 x 593 km, 82.5° (Epoch: 23 July)

Date Brightness Start Highest point End Pass type
(mag) Time Alt. Az. Time Alt. Az. Time Alt. Az.
24 Jul 5.6 03:20:27 10° NNE 03:23:29 19° ENE 03:26:29 10° ESE visible
25 Jul 5.1 03:25:56 10° NNE 03:29:30 26° ENE 03:33:01 10° SE visible
26 Jul 4.5 03:31:34 10° N 03:35:29 35° ENE 03:39:21 10° SE visible
27 Jul 3.8 03:37:18 10° N 03:41:26 50° ENE 03:45:30 10° SSE visible
28 Jul 3.1 03:43:07 10° N 03:47:21 73° E 03:51:32 10° SSE visible
29 Jul 2.8 03:49:00 10° N 03:53:15 79° W 03:56:39 15° S visible
30 Jul 5.7 02:19:35 10° NE 02:21:37 13° ENE 02:23:38 10° E visible
30 Jul 3.1 03:54:58 10° NNW 03:59:06 54° W 04:01:46 20° SSW visible
31 Jul 5.4 02:24:45 10° NNE 02:27:40 18° ENE 02:30:33 10° ESE visible
31 Jul 3.5 04:01:01 10° NNW 04:04:56 38° W 04:06:57 23° SW visible
01 Aug 4.9 02:30:12 10° NNE 02:33:41 24° ENE 02:35:50 17° ESE visible
01 Aug 4.0 04:07:11 10° NNW 04:10:44 27° W 04:12:11 22° WSW visible
02 Aug 4.4 02:35:48 10° N 02:39:40 34° ENE 02:41:08 26° ESE visible
02 Aug 4.4 04:13:30 10° NW 04:16:30 19° W 04:17:29 18° WSW visible
